User: anonymous
Location: Irma
(52.9170°N, 111.2330°W)
Time: 09:48:16
(UTC-06:00)
Language:

deb Chang Zheng 4 - Orbit

View from above orbital plane
View from above orbital plane
View from above satellite
View from above satellite

Ground track
Ground track

The orbit data is extracted from the following two-line orbital elements,

1 20847U 90081K   14262.08488122  .00008920  00000-0  15802-2 0  1750
2 20847 098.5758 070.1965 0022155 005.9614 110.3099 14.67383843257962
Epoch (UTC): 19 September 2014 02:02:13
Eccentricity: 0.0022155
inclination: 98.5758°
perigee height: 654 km
apogee height: 685 km
right ascension of ascending node: 70.1965°
argument of perigee: 5.9614°
revolutions per day: 14.67383843
mean anomaly at epoch: 110.3099°
orbit number at epoch: 25796

The dashed part of the orbit path shows where the satellite is in the earth's shadow,  

DLR